Location: Mascot Post Office (historical)
(40.2645°N, 99.5462°W)
Time: 02:47:59
(UTC+00:00)

COSMOS 2406 - Pass Details

Date: 14 July 2020
Orbit: 844 x 862 km, 71.0° (Epoch: 14 August)

Event Time Altitude Azimuth Distance (km) Brightness Sun altitude
Exits shadow 07:37:50 46° 116° (ESE) 1,138 3.7 -26.9°
Maximum altitude 07:38:08 47° 107° (ESE) 1,131 3.7 -26.9°
Drops below altitude 10° 07:43:37 10° 35° (NE) 2,507 6.5 -26.6°
Sets 07:46:10 0° 30° (NNE) 3,446 7.6 -26.5°
